Montpelier, VT

6:30 AM EST on November 12, 2019 (GMT -0500)
Knapp State

Weather History for KMPV - August, 2019

Change the Weather History Date:

Saturday, August 3, 2019

  Actual Average Record
Temperature  
Mean Temperature 64 °F 67 °F  
Max Temperature 81 °F 78 °F 93 °F (1988)
Min Temperature 48 °F 55 °F 36 °F (1953)
Degree Days  
Heating Degree Days 0 1  
Month to date heating degree days 1 3  
Since 1 June heating degree days 154 164  
Since 1 July heating degree days 10 43  
Cooling Degree Days 0 3  
Month to date cooling degree days 0 9  
Year to date cooling degree days 158 177  
Since 1 June cooling degree days 157 167  
Growing Degree Days 14 (Base 50)    
Moisture  
Dew Point 54 °F    
Average Humidity 70    
Maximum Humidity 100    
Minimum Humidity 35    
Precipitation  
Precipitation 0.00 in 0.15 in 1.72 in (1971)
Month to date precipitation 0.00 0.47  
Year to date precipitation 30.55 21.26  
Sea Level Pressure  
Sea Level Pressure 30.02 in    
Wind  
Wind Speed 1 mph ()    
Max Wind Speed 13 mph    
Max Gust Speed 18 mph    
Visibility 10.0 miles    
Events      
T = Trace of Precipitation, MM = Missing Value Source: Averaged Metar Reports

Daily Weather History Graph

Daily Weather History Graph

Search for Another Location

Airport or City:

Astronomy

Aug. 03, 2019 Rise Set
Actual Time 5:39 AM EDT 8:12 PM EDT
Civil Twilight 5:06 AM EDT 8:45 PM EDT
Nautical Twilight 4:25 AM EDT 9:26 PM EDT
Astronomical Twilight 3:38 AM EDT 10:12 PM EDT
Moon 8:34 AM EDT (8/3) 10:09 PM EDT (8/3)
Length of Visible Light 15h 38m
Length of Day
14h 32m
Waxing Crescent, 10% of the Moon is Illuminated
Aug 3
Waxing Crescent
Aug 7
First Quarter
Aug 15
Full
Aug 23
Last Quarter
Aug 30
New

Hourly Weather History & Observations

Time (EDT) Temp. Heat Index Dew Point Humidity Pressure Visibility Wind Dir Wind Speed Gust Speed Precip Events Conditions
12:51 AM 54.0 °F - 52.0 °F 93% 30.12 in 10.0 mi Calm Calm - N/A   Clear
1:51 AM 53.1 °F - 51.1 °F 93% 30.12 in 10.0 mi Calm Calm - N/A   Clear
2:51 AM 52.0 °F - 51.1 °F 97% 30.10 in 10.0 mi Calm Calm - N/A   Clear
3:51 AM 50.0 °F - 48.0 °F 93% 30.10 in 10.0 mi Calm Calm - N/A   Clear
4:51 AM 52.0 °F - 50.0 °F 93% 30.08 in 10.0 mi Calm Calm - N/A   Clear
5:51 AM 48.9 °F - 48.0 °F 97% 30.10 in 10.0 mi Calm Calm - N/A   Clear
6:51 AM 53.1 °F - 52.0 °F 96% 30.09 in 10.0 mi Calm Calm - N/A   Clear
7:51 AM 55.0 °F - 53.1 °F 93% 30.09 in 10.0 mi Calm Calm - N/A   Clear
8:51 AM 60.1 °F - 55.0 °F 83% 30.08 in 10.0 mi Calm Calm - N/A   Clear
9:51 AM 68.0 °F - 57.9 °F 70% 30.07 in 10.0 mi Calm Calm - N/A   Clear
10:51 AM 73.0 °F - 57.9 °F 59% 30.05 in 10.0 mi Calm Calm - N/A   Clear
11:51 AM 75.9 °F - 53.1 °F 45% 30.03 in 10.0 mi North 3.5 mph - N/A   Clear
12:51 PM 77.0 °F - 51.1 °F 40% 30.01 in 10.0 mi West 4.6 mph - N/A   Clear
1:51 PM 79.0 °F - 48.9 °F 35% 30.00 in 10.0 mi NW 8.1 mph - N/A   Clear
2:51 PM 79.0 °F - 52.0 °F 39% 29.98 in 10.0 mi WNW 6.9 mph - N/A   Clear
3:51 PM 80.1 °F 79.9 °F 53.1 °F 39% 29.96 in 10.0 mi WSW 9.2 mph - N/A   Clear
4:51 PM 80.1 °F 79.9 °F 53.1 °F 39% 29.95 in 10.0 mi NW 6.9 mph - N/A   Clear
5:51 PM 79.0 °F - 53.1 °F 40% 29.94 in 10.0 mi WNW 4.6 mph - N/A   Clear
6:51 PM 77.0 °F - 57.0 °F 50% 29.94 in 10.0 mi West 3.5 mph - N/A   Clear
7:51 PM 68.0 °F - 61.0 °F 78% 29.94 in 10.0 mi SSW 3.5 mph - N/A   Clear
8:51 PM 66.0 °F - 57.9 °F 75% 29.96 in 10.0 mi Calm Calm - N/A   Clear
9:51 PM 63.0 °F - 59.0 °F 87% 29.96 in 10.0 mi South 3.5 mph - N/A   Clear
10:51 PM 64.0 °F - 57.9 °F 80% 29.96 in 10.0 mi Calm Calm - N/A   Clear
11:51 PM 64.0 °F - 57.0 °F 78% 29.97 in 10.0 mi Calm Calm - N/A   Partly Cloudy